Regional Weather Roundup
Issued by NWS Upton, NY

Current Version | Previous Version | Text Only | Print | Product List | Glossary On
Versions: 1 2 3 4 5 6 7 8 9 10 11 12 13 14 15 16 17 18 19 20 21 22 23 24 25 26
000
ASUS41 KOKX 182108
RWROKX

REGIONAL WEATHER ROUNDUP
NATIONAL WEATHER SERVICE NEW YORK NY
400 PM EST WED JAN 18 2017

NOTE: "FAIR" INDICATES FEW OR NO CLOUDS BELOW 12,000 FEET WITH NO
SIGNIFICANT WEATHER AND/OR OBSTRUCTIONS TO VISIBILITY.

NYZ071-072-176-178-NJZ106-104-182200-
NEW YORK CITY METRO AREA

CITY           SKY/WX    TMP DP  RH WIND       PRES   REMARKS
Central Park   CLOUDY    41  36  82 NE6       29.97F
Wall St Helipt   N/A    -78 -78 100 NE6         N/A  WCI-104
Bronx Bot Gard NOT AVBL
LaGuardia APRT CLOUDY    42  37  82 N7        29.95F
Kennedy INTL   CLOUDY    42  36  79 N9        29.96S
Breezy Point   NOT AVBL
Newark/Liberty CLOUDY    42  38  85 N12       29.96S
Teterboro      CLOUDY    43  37  79 N8        29.95S
$$

NYZ177-179-078>081-182200-
LONG ISLAND NEW YORK

CITY           SKY/WX    TMP DP  RH WIND       PRES   REMARKS
Jones Beach    NOT AVBL
Matinecock PT  NOT AVBL
Farmingdale    CLOUDY    40  38  93 N12       29.95S WCI  33
MacArthur/ISP  CLOUDY    39  38  96 N10       29.94S FOG     WCI  32
Shirley        CLOUDY    39  38  96 N7        29.95S FOG     WCI  34
Westhampton    CLOUDY    40  38  93 N10       29.95S WCI  33
Southampton    NOT AVBL
Bridgehampton  NOT AVBL
East Hampton   CLOUDY    40  38  95 N7        29.93S FOG     WCI  35
Montauk          N/A     42  40  92 N12       29.94R
$$

NYZ052-065-067-182200-
HUDSON VALLEY

CITY           SKY/WX    TMP DP  RH WIND       PRES   REMARKS
White Plains   CLOUDY    40  36  86 N7        29.94S
Newburgh       CLOUDY    39  39 100 MISG      29.97R
Montgomery     CLOUDY    40  36  86 N6        29.97R
Poughkeepsie   CLOUDY    38  35  89 N3        29.98R
Albany         CLOUDY    37  34  89 CALM      30.00R FOG
$$

NJZ001-105-106-008-010-013-015-019>022-104-182200-
NEW JERSEY

CITY           SKY/WX    TMP DP  RH WIND       PRES   REMARKS
Newark/Liberty CLOUDY    42  38  85 N12       29.96S
Teterboro      CLOUDY    43  37  79 N8        29.95S
Caldwell       CLOUDY    41  36  82 N3        29.98R
Somerville     CLOUDY    43  36  76 N7        29.95R
Linden         CLOUDY    42  37  82 CALM      29.96R
Sussex         CLOUDY    40  37  89 N3        29.97R
Andover          N/A     39  36  89 N3        29.97R
Trenton        CLOUDY    44  39  82 N9        29.95R
Millville      CLOUDY    49  43  80 N8        29.95R
Atlantic City  CLOUDY    46  39  76 N15       29.94R
Wrightstown    CLOUDY    43  40  89 N9        29.93R
Toms River     CLOUDY    41  40  96 N5        29.96R FOG
Belmar         CLOUDY    40  39  97 N9        29.95S FOG     WCI  34
$$

PAZ047>061-062-071-182200-
EASTERN PENNSYLVANIA

CITY           SKY/WX    TMP DP  RH WIND       PRES   REMARKS
Philadelphia   CLOUDY    47  40  76 N8        29.97R
Allentown      CLOUDY    43  37  79 NE5       29.98R
Scranton       CLOUDY    40  39  97 NW6       29.97R
$$

CTZ002-004>006-009-010-012-RIZ004-006-007-MAZ004-011-015-182200-
SOUTHERN NEW ENGLAND
 IN CT

CITY           SKY/WX    TMP DP  RH WIND       PRES   REMARKS
Bradley INTL   CLOUDY    36  35  96 N7        29.98R WCI  30
Hartford       CLOUDY    37  35  92 N8        29.98R WCI  31
Danbury        CLOUDY    38  35  89 NE3       29.96S
Wtrbury/Oxford CLOUDY    37  32  81 NE10      29.94F WCI  30
Bridgeport     CLOUDY    42  36  79 N7        29.95F
Meriden        CLOUDY    39  35  86 N6        29.96S WCI  35
New Haven      CLOUDY    39  36  89 N13       29.95S WCI  31
Chester        CLOUDY    39  37  93 N8        29.93F WCI  34
Groton         CLOUDY    43  39  86 N12       29.93S
Wilimantic     CLOUDY    39  36  89 NE8       29.97S WCI  33

 IN RI

CITY           SKY/WX    TMP DP  RH WIND       PRES   REMARKS
Providence     CLOUDY    41  38  89 NE9       29.96R
Block Island   NOT AVBL
Westerly       CLOUDY    43  37  79 N7        29.94R
 IN MA

CITY           SKY/WX    TMP DP  RH WIND       PRES   REMARKS
Boston         DRIZZLE   40  39  97 NE12      29.99S FOG     WCI  33
Worcester      FOG       31  29  92 NE9       29.95R VSB 1/4 WCI  23
Westfield      CLOUDY    35  34  96 N9        29.98S WCI  28
Provincetown   CLOUDY    39  39 100 E14       29.96S FOG     WCI  31
Nantucket      LGT RAIN  42  39  89 NE17G25   29.91R FOG
$$

ANZ330-335-338-340-345-350-353-355-182200-
COASTAL MARINE OBSERVATIONS


STATION/POSITION TIME  SKY/WX   TEMP    WIND        PRES    VSBY  WAVE
                                AIR SEA DIR/SP/G                  HT/PER
                 (UTC)          (F)     (DEG/KT/KT) (MB)    (MI)  (FT/S)
NY HARB ENTRANCE 1950            41 44  350/ 14/ 17 1013.6          4/ 7
20 S FIRE ISLAND 1950            41 45  360/ 17/ 21 1012.5          6/ 7
GREAT SOUTH BAY  NOT AVBL
23 SSW MONTAUK P 1950            42 47   10/ 23/ 27 1012.0          7/ 7
15 E BARNEGAT LI 2030               47                N/A           5/ 7
HUDSON CANYON    1950            49 53              1009.8          7/ 8
KINGS POINT      2036            40 38              1014.1
EXECUTION ROCKS  2045            40      10/  6/  8   N/A
CENTRAL LI SOUND 2015            40     360/ 12/ 14   N/A           1/ 3
EASTERN LI SOUND NOT AVBL
ROBBINS REEF     2036            40     360/ 11/ 12 1014.4
$$


>>>>>>>>>>>>>>>>>>>>>>>>>>>> KEY <<<<<<<<<<<<<<<<<<<<<<<<<<<
>                                                          <
>     SKY/WX - Sky Condition/Present Weather               <
>     TMP    - Temperature in Fahrenheit                   <
>     DP     - Dew Point in Fahrenheit                     <
>     RH     - Relative Humidity in Percent                <
>     WIND   - Direction (from) and Speed in MPH           <
>     PRES   - Mean Sea Level Pressure (inches of Hg)      <
>     WCI    - Wind Chill Index                            <
>     VSB    - VISIBILITY IN MILES                         <
>     HX     - HEAT INDEX                                  <
>     TC     - TEMPERATURE IN CELSIUS                      <
>     VRB    - VARIABLE WIND DIRECTION                     <
>                                                          <
>>>>>>>>>>>>>>>>>>>>>>>>>>>> KEY <<<<<<<<<<<<<<<<<<<<<<<<<<<




USA.gov is the U.S. government's official web portal to all federal, state and local government web resources and services.